TIME,DELAY(SENSOR),PRES,OXYGEN,RAWTEMP,T(OPTODE),TCPHASE,FLUOR,BETA(BETA700),BETA(BETA412),BETA(BETA440),CDOM,C(CSC),ED(ED412.20),ED(ED444.00),ED(ED489.60),ED(ED554.30),LU(LU412.10),LU(LU443.90),LU(LU489.70),LU(LU554.70),COMP,TILTX,TILTY,CHECK
1357527567,5808,894.5300292968750000,34.8774909973144500,561.8004760742188000,4.4300818443298340,56.3150482177734400,55,99,99,78,82,15550,0,0,0,0,2147125659,2147770459,2147572297,2147572123,826,2,13,21798
1357531163,5810,967.7399902343750000,40.8731498718261700,567.3840942382812000,4.2568230628967285,55.4619216918945300,55,97,99,78,81,15547,0,0,0,0,2147123300,2147767597,2147575881,2147568786,3306,2,13,59859
1357534763,5812,970.6300048828125000,43.5677299499511700,569.4304199218750000,4.1932601928710940,55.0882606506347660,56,97,100,77,81,15543,0,0,0,0,2147122486,2147771913,2147577764,2147567497,3201,2,13,44614
1357538363,5808,979.8200073242188000,43.9297103881835940,569.5988159179688000,4.1880278587341310,55.0390701293945300,55,99,100,79,83,15546,0,0,0,0,2147125659,2147768786,2147573824,2147569499,3578,2,13,3614
1357541963,5810,987.1900024414062000,43.4328994750976560,569.6611938476562000,4.1860890388488770,55.1063499450683600,55,98,100,80,82,15543,0,0,0,0,2147123812,2147773357,2147576758,2147570505,147,3,13,21862
1357545563,5810,985.5100097656250000,43.2971687316894500,569.5140991210938000,4.1906599998474120,55.1282386779785160,54,101,100,76,81,15544,0,0,0,0,2147122651,2147769517,2147575277,2147570176,3401,2,13,40023
1357549163,5808,985.1900024414062000,43.1793289184570300,569.8720703125000000,4.1795368194580080,55.1475410461425800,55,100,100,77,83,15544,0,0,0,0,2147122486,2147773202,2147574976,2147567369,135,3,13,29068
1357552763,5813,992.7899780273438000,42.9734916687011700,570.3018798828125000,4.1661782264709470,55.1819610595703100,55,100,100,79,80,15544,0,0,0,0,2147123885,2147774509,2147576365,2147568896,3556,2,13,45478
1357556363,5807,989.6500244140625000,42.9300804138183600,570.1796264648438000,4.1699790954589840,55.1883087158203100,54,99,101,80,81,15544,0,0,0,0,2147126208,2147770614,2147572745,2147570121,305,3,13,61508
1357559963,5809,995.2199707031250000,42.8804206848144500,570.2064208984375000,4.1691470146179200,55.1941604614257800,55,98,100,77,82,15543,0,0,0,0,2147125010,2147769097,2147576566,2147567597,132,3,13,24723
1357563563,5808,999.3300170898438000,42.8437004089355500,570.1469116210938000,4.1709980964660645,55.2000007629394500,56,98,100,79,82,15543,0,0,0,0,2147126848,2147772233,2147575168,2147567296,170,3,13,29926
1357567163,5808,995.8699951171875000,42.8217697143554700,570.1588745117188000,4.1706237792968750,55.1998214721679700,54,99,100,78,82,15540,0,0,0,0,2147123017,2147768164,2147577380,2147573321,187,2,13,37428
1357570763,5809,992.9400024414062000,42.6312408447265600,570.5894775390625000,4.1572399139404300,55.2358512878418000,54,97,98,79,82,15543,0,0,0,0,2147122358,2147773650,2147576576,2147569033,355,3,13,37935
1357574363,5810,992.1300048828125000,42.2665100097656250,570.6295776367188000,4.1559939384460450,55.2889289855957000,55,99,100,77,84,15541,0,0,0,0,2147125339,2147767972,2147576228,2147569106,70,3,13,1239
1357577963,5809,989.5700073242188000,42.5897789001464840,571.3098144531250000,4.1348509788513180,55.2468490600585940,55,99,101,79,82,15543,0,0,0,0,2147122514,2147769152,2147577773,2147567350,3509,3,13,59403
1357581563,5811,986.5599975585938000,42.9850387573242200,571.8997192382812000,4.1165099143981930,55.1952095031738300,54,100,100,79,82,15543,0,0,0,0,2147125897,2147772708,2147572571,2147571273,556,3,13,9206
1357585163,5808,989.1300048828125000,42.9623107910156250,571.2910766601562000,4.1354308128356930,55.1912193298339840,54,98,101,78,82,15541,0,0,0,0,2147123419,2147770093,2147576502,2147567990,610,3,13,44109
1357588763,5810,993.9199829101562000,42.8824195861816400,570.9428100585938000,4.1462588310241700,55.1986999511718750,55,97,100,79,84,15542,0,0,0,0,2147127341,2147769636,2147578605,2147569709,21,3,13,56065
1357592363,5809,982.1500244140625000,42.7387199401855500,571.9401245117188000,4.1152529716491700,55.2311515808105500,55,102,101,78,82,15538,0,0,0,0,2147121810,2147771072,2147574985,2147567744,3430,2,13,49472
1357595963,5810,993.3400268554688000,43.2874488830566400,572.0441284179688000,4.1120219230651855,55.1571197509765600,55,98,100,79,81,15538,0,0,0,0,2147124434,2147770624,2147575506,2147569654,61,2,13,2891
1357599563,5812,998.8800048828125000,43.2922210693359400,571.6209716796875000,4.1251769065856930,55.1525993347168000,55,99,100,78,82,15539,0,0,0,0,2147122276,2147773403,2147572534,2147569792,3081,2,13,23834
1357603163,5811,996.1699829101562000,42.8928489685058600,571.1129760742188000,4.1409659385681150,55.2038993835449200,55,104,100,78,81,15537,0,0,0,0,2147122505,2147769097,2147576822,2147568996,3556,2,13,29102
1357606763,5809,995.7899780273438000,42.8679084777832000,570.8480224609375000,4.1492080688476560,55.2030410766601560,56,98,101,78,81,15533,0,0,0,0,2147125869,2147770505,2147571849,2147570258,315,2,13,4256
1357610363,5810,993.1599731445312000,42.8093910217285160,570.9998168945312000,4.1444869041442870,55.2137107849121100,55,98,102,79,82,15535,0,0,0,0,2147124406,2147775259,2147571090,2147570112,3431,2,13,47636
1357613963,5810,994.9799804687500000,42.7564201354980500,571.4976196289062000,4.1290130615234375,55.2243309020996100,55,99,100,78,82,15535,0,0,0,0,2147122066,2147770852,2147573613,2147568548,3524,2,13,26148
1357617563,5810,1000.1300048828125000,43.0611610412597660,571.5321044921875000,4.1279392242431640,55.1833000183105500,56,100,101,78,82,15535,0,0,0,0,2147122971,2147773568,2147572580,2147566235,3482,2,13,62466
1357621163,5809,997.1799926757812000,42.9080009460449200,571.1890258789062000,4.1386051177978520,55.1980895996093750,54,98,100,77,82,15534,0,0,0,0,2147123913,2147767570,2147571328,2147567725,245,2,13,32848
1357624763,5810,998.6799926757812000,42.7994613647460940,571.4080200195312000,4.1318001747131350,55.2164916992187500,56,99,100,79,82,15536,0,0,0,0,2147120896,2147768548,2147575780,2147567670,3496,2,13,29349
1357628363,5812,997.9199829101562000,42.9689598083496100,571.2078247070312000,4.1380209922790530,55.1945190429687500,55,97,100,78,81,15534,0,0,0,0,2147124763,2147774729,2147571483,2147568256,407,2,13,54740
1357631963,5812,1002.1199951171875000,42.8114204406738300,570.9688720703125000,4.1454467773437500,55.2126312255859400,54,97,99,78,81,15537,0,0,0,0,2147123821,2147769974,2147572608,2147570048,5,3,13,38770
1357635563,5811,997.9400024414062000,42.9583892822265600,570.9932861328125000,4.1446881294250490,55.1945114135742200,55,100,100,78,82,15536,0,0,0,0,2147125449,2147773376,2147575424,2147566454,3584,3,13,31285
1357639163,5810,1002.0900268554688000,43.0270195007324200,570.8898925781250000,4.1479029655456540,55.1811485290527340,55,99,101,79,82,15526,0,0,0,0,2147125366,2147772708,2147574299,2147569883,437,2,13,38103
1357642763,5811,995.1799926757812000,42.8382911682128900,571.0460815429688000,4.1430468559265140,55.2082786560058600,55,100,101,79,82,15532,0,0,0,0,2147130130,2147774838,2147573897,2147567872,62,3,13,49929
1357646363,5808,1002.1500244140625000,42.6356201171875000,570.8056030273438000,4.1505241394042970,55.2377891540527340,55,99,101,78,82,15531,0,0,0,0,2147124160,2147771090,2147575204,2147569737,789,3,13,11688
1357649963,5808,998.9199829101562000,42.4240989685058600,571.0936279296875000,4.1415710449218750,55.2673988342285160,55,103,101,78,82,15533,0,0,0,0,2147124370,2147767643,2147575094,2147568795,193,2,13,23694
1357653563,5809,1001.5000000000000000,42.5509910583496100,571.2891845703125000,4.1354918479919430,55.2497901916503900,55,98,99,78,82,15530,0,0,0,0,2147124269,2147770011,2147574848,2147566930,162,3,13,44579
1357657163,5807,1004.5399780273438000,43.1052818298339840,571.4669189453125000,4.1299691200256350,55.1727714538574200,56,99,101,78,82,15532,0,0,0,0,2147124324,2147774409,2147572681,2147567131,3575,3,13,1456
1357660763,5807,999.3200073242188000,42.4592094421386700,571.9832153320312000,4.1139140129089355,55.2774085998535160,55,100,100,78,82,15530,0,0,0,0,2147120164,2147775542,2147577353,2147569389,66,3,13,40802
1357664363,5810,995.6300048828125000,42.3644409179687500,571.6544189453125000,4.1241378784179690,55.2825889587402340,54,100,101,78,81,15532,0,0,0,0,2147120859,2147770797,2147573302,2147570669,123,3,13,30323
1357667963,5813,997.6400146484375000,42.5328788757324200,571.7866821289062000,4.1200242042541500,55.2608108520507800,54,97,99,79,82,15530,0,0,0,0,2147124425,2147769837,2147573933,2147570989,35,3,13,1149
1357671563,5810,1004.0700073242188000,43.1059989929199200,571.6378784179688000,4.1246490478515625,55.1771583557128900,55,100,100,79,83,15529,0,0,0,0,2147126400,2147771748,2147569929,2147570221,3488,2,13,5742
1357672557,5809,1002.6199951171875000,43.0800781250000000,571.2293701171875000,4.1373519897460940,55.1763191223144500,55,99,99,79,83,15531,0,0,0,0,2147127085,2147770953,2147575744,2147568630,3264,2,13,29239
